Metropolis, IL

6:18 PM CDT on April 28, 2017 (GMT -0500)
Metropolis

Weather History for KM30 - December, 2011

Change the Weather History Date:

Monday, December 5, 2011

  Actual Average (KPAH) Record (KPAH)
Temperature  
Mean Temperature 38 °F -  
Max Temperature 42 °F 50 °F 71 °F (1998)
Min Temperature 35 °F 31 °F 11 °F (1942)
Degree Days  
Heating Degree Days 26    
Moisture  
Dew Point 36 °F    
Average Humidity 96    
Maximum Humidity 100    
Minimum Humidity 93    
Precipitation  
Precipitation 1.59 in - - ()
Sea Level Pressure  
Sea Level Pressure 30.12 in    
Wind  
Wind Speed 11 mph (North)    
Max Wind Speed 20 mph    
Max Gust Speed 26 mph    
Visibility 6 miles    
Events Rain , Snow    
Averages and records for this station are not official NWS values.
T = Trace of Precipitation, MM = Missing Value Source: NWS Daily Summary

Daily Weather History Graph

Daily Weather History Graph

Search for Another Location

Airport or City:

Trip Planner

Search our weather history database for the weather conditions in past years. The results will help you decide how hot, cold, wet, or windy it might be!

Date:

Astronomy

Dec. 05, 2011 Rise Set
Actual Time 6:53 AM CST 4:37 PM CST
Civil Twilight 6:24 AM CST 5:06 PM CST
Nautical Twilight 5:52 AM CST 5:38 PM CST
Astronomical Twilight 5:20 AM CST 6:10 PM CST
Moon 1:31 PM CST (12/5) 2:19 AM CST (12/5)
Length of Visible Light 10h 41m
Length of Day
9h 43m
Waxing Gibbous, 80% of the Moon is Illuminated
Dec 5
Waxing Gibbous
Dec 10
Full
Dec 17
Last Quarter
Dec 24
New
Jan 1
First Quarter

Hourly Weather History & Observations

Time (CST) Temp. Windchill Dew Point Humidity Pressure Visibility Wind Dir Wind Speed Gust Speed Precip Events Conditions
12:15 AM 42.8 °F 38.0 °F 42.8 °F 100% 30.12 in 7.0 mi NNE 8.1 mph - 0.04 in Rain Rain
12:35 AM 42.8 °F 36.6 °F 41.0 °F 93% 30.13 in 10.0 mi North 11.5 mph 17.3 mph 0.07 in Rain Rain
12:55 AM 42.8 °F 37.0 °F 41.0 °F 93% 30.13 in 7.0 mi North 10.4 mph 17.3 mph 0.11 in Rain Rain
1:15 AM 41.0 °F 35.2 °F 41.0 °F 100% 30.12 in 7.0 mi North 9.2 mph - 0.02 in Rain Rain
1:35 AM 41.0 °F 34.7 °F 41.0 °F 100% 30.12 in 5.0 mi North 10.4 mph - 0.07 in Rain Rain
1:55 AM 41.0 °F 35.2 °F 41.0 °F 100% 30.12 in 7.0 mi North 9.2 mph - 0.12 in Rain Rain
2:15 AM 41.0 °F 35.2 °F 41.0 °F 100% 30.13 in 5.0 mi North 9.2 mph - 0.05 in Rain Rain
2:35 AM 41.0 °F 36.4 °F 41.0 °F 100% 30.11 in 4.0 mi NNE 6.9 mph 17.3 mph 0.11 in Rain Heavy Rain
2:55 AM 41.0 °F 35.8 °F 41.0 °F 100% 30.11 in 4.0 mi North 8.1 mph - 0.20 in Rain Heavy Rain
3:15 AM 41.0 °F 33.5 °F 39.2 °F 93% 30.14 in 3.0 mi NNW 13.8 mph 17.3 mph 0.06 in Rain Heavy Rain
3:35 AM 41.0 °F 33.9 °F 39.2 °F 93% 30.13 in 4.0 mi North 12.7 mph 17.3 mph 0.14 in Rain Heavy Rain
4:15 AM 39.2 °F 32.0 °F 37.4 °F 93% 30.14 in 4.0 mi North 11.5 mph 21.9 mph 0.04 in Rain Rain
4:35 AM 39.2 °F 30.8 °F 37.4 °F 93% 30.14 in 3.0 mi North 15.0 mph 23.0 mph 0.09 in Rain Rain
5:15 AM 39.2 °F 32.5 °F 37.4 °F 93% 30.15 in 5.0 mi North 10.4 mph 16.1 mph 0.05 in Rain Rain
5:35 AM 37.4 °F 29.8 °F 37.4 °F 100% 30.14 in 5.0 mi North 11.5 mph 16.1 mph 0.09 in Rain Rain
5:55 AM 37.4 °F 32.1 °F 37.4 °F 100% 30.13 in 3.0 mi NNE 6.9 mph 17.3 mph 0.18 in Rain Heavy Rain
6:55 AM 37.4 °F 31.4 °F 37.4 °F 100% 30.15 in 10.0 mi North 8.1 mph - 0.07 in Rain Rain
7:15 AM 37.4 °F 30.8 °F 37.4 °F 100% 30.13 in 4.0 mi North 9.2 mph - 0.04 in Rain Rain
7:35 AM 37.4 °F 31.4 °F 37.4 °F 100% 30.11 in 4.0 mi NNE 8.1 mph - 0.10 in Rain Rain
7:55 AM 37.4 °F 34.9 °F 37.4 °F 100% 30.10 in 10.0 mi North 3.5 mph - 0.11 in Rain Rain
8:15 AM 37.4 °F 32.8 °F 37.4 °F 100% 30.11 in 10.0 mi North 5.8 mph - N/A Rain Rain
8:35 AM 37.4 °F 30.8 °F 37.4 °F 100% 30.10 in 10.0 mi North 9.2 mph - 0.02 in Rain Rain
8:55 AM 37.4 °F 30.8 °F 37.4 °F 100% 30.10 in 10.0 mi North 9.2 mph - 0.03 in Rain Light Rain
9:15 AM 37.4 °F 29.8 °F 37.4 °F 100% 30.08 in 7.0 mi North 11.5 mph 16.1 mph 0.02 in Rain Light Rain
9:35 AM 37.4 °F 30.3 °F 37.4 °F 100% 30.13 in 10.0 mi NNW 10.4 mph - 0.03 in   Drizzle
9:55 AM 37.4 °F 28.9 °F 35.6 °F 93% 30.12 in 4.0 mi North 13.8 mph 19.6 mph 0.06 in Rain Rain
10:15 AM 37.4 °F 28.9 °F 35.6 °F 93% 30.12 in 4.0 mi North 13.8 mph 20.7 mph 0.03 in Rain Rain
10:35 AM 37.4 °F 30.3 °F 35.6 °F 93% 30.12 in 3.0 mi North 10.4 mph 17.3 mph 0.08 in Rain Rain
10:55 AM 37.4 °F 29.3 °F 35.6 °F 93% 30.13 in 3.0 mi NNW 12.7 mph 19.6 mph 0.13 in Rain Rain
11:15 AM 37.4 °F 30.3 °F 35.6 °F 93% 30.13 in 3.0 mi NNW 10.4 mph 21.9 mph 0.04 in Rain Rain
11:35 AM 35.6 °F 27.1 °F 35.6 °F 100% 30.12 in 2.0 mi NNW 12.7 mph - 0.08 in Rain Light Rain
11:55 AM 35.6 °F 25.5 °F 35.6 °F 100% 30.11 in 3.0 mi North 17.3 mph 24.2 mph 0.13 in Rain Rain
12:15 PM 35.6 °F 27.1 °F 35.6 °F 100% 30.10 in 4.0 mi NNW 12.7 mph 17.3 mph 0.03 in Rain Rain
12:35 PM 35.6 °F 25.9 °F 33.8 °F 93% 30.10 in 2.5 mi North 16.1 mph 25.3 mph 0.09 in Rain Rain
12:55 PM 35.6 °F 26.2 °F 33.8 °F 93% 30.10 in 3.0 mi NNW 15.0 mph 21.9 mph 0.14 in Rain Rain
1:15 PM 35.6 °F 25.5 °F 33.8 °F 93% 30.09 in 2.0 mi North 17.3 mph 23.0 mph 0.04 in   Overcast
1:35 PM 35.6 °F 24.8 °F 33.8 °F 93% 30.09 in 3.0 mi NNW 19.6 mph 23.0 mph 0.07 in Snow Light Snow
1:55 PM 35.6 °F 26.2 °F 33.8 °F 93% 30.09 in 5.0 mi NNW 15.0 mph 20.7 mph 0.08 in Rain Light Rain
2:15 PM 35.6 °F 24.8 °F 33.8 °F 93% 30.09 in 10.0 mi NNW 19.6 mph 26.5 mph N/A Rain Light Rain
2:35 PM 35.6 °F 25.9 °F 33.8 °F 93% 30.09 in 10.0 mi North 16.1 mph 21.9 mph N/A   Light Drizzle
2:55 PM 35.6 °F 26.6 °F 33.8 °F 93% 30.07 in 10.0 mi North 13.8 mph 19.6 mph N/A   Overcast
3:15 PM 35.6 °F 25.5 °F 33.8 °F 93% 30.06 in 10.0 mi North 17.3 mph 23.0 mph N/A   Overcast
3:35 PM 35.6 °F 26.6 °F 33.8 °F 93% 30.10 in 10.0 mi North 13.8 mph 18.4 mph N/A   Overcast
3:55 PM 35.6 °F 28.0 °F 33.8 °F 93% 30.12 in 10.0 mi North 10.4 mph 17.3 mph N/A   Light Drizzle
4:15 PM 37.4 °F 29.8 °F 35.6 °F 93% 30.14 in 10.0 mi NNW 11.5 mph 23.0 mph N/A   Overcast
4:35 PM 35.6 °F 27.5 °F 33.8 °F 93% 30.16 in 10.0 mi NNW 11.5 mph 20.7 mph N/A   Overcast
4:55 PM 35.6 °F 26.2 °F 33.8 °F 93% 30.16 in 7.0 mi NNW 15.0 mph 19.6 mph N/A   Drizzle
5:15 PM 35.6 °F 25.2 °F 33.8 °F 93% 30.16 in 4.0 mi North 18.4 mph 23.0 mph N/A   Drizzle
5:35 PM 35.6 °F 27.5 °F 33.8 °F 93% 30.14 in 4.0 mi North 11.5 mph 17.3 mph N/A Rain Light Rain
5:55 PM 35.6 °F 28.6 °F 33.8 °F 93% 30.15 in 7.0 mi North 9.2 mph 17.3 mph N/A   Overcast
6:15 PM 35.6 °F 28.0 °F 33.8 °F 93% 30.15 in 10.0 mi North 10.4 mph 16.1 mph N/A   Overcast
6:35 PM 35.6 °F 29.2 °F 33.8 °F 93% 30.16 in 10.0 mi NNW 8.1 mph 16.1 mph N/A   Overcast
6:55 PM 35.6 °F 27.5 °F 33.8 °F 93% 30.16 in 10.0 mi North 11.5 mph 17.3 mph N/A   Overcast
7:15 PM 35.6 °F 28.6 °F 33.8 °F 93% 30.16 in 10.0 mi North 9.2 mph 18.4 mph N/A   Overcast
7:35 PM 35.6 °F 28.6 °F 33.8 °F 93% 30.17 in 10.0 mi North 9.2 mph - N/A   Overcast
7:55 PM 35.6 °F 28.6 °F 33.8 °F 93% 30.16 in 10.0 mi North 9.2 mph - N/A   Overcast
8:15 PM 35.6 °F 28.6 °F 33.8 °F 93% 30.17 in 10.0 mi NNW 9.2 mph - N/A   Overcast
8:35 PM 35.6 °F 28.0 °F 33.8 °F 93% 30.17 in 7.0 mi North 10.4 mph - N/A   Overcast
8:55 PM 35.6 °F 27.5 °F 33.8 °F 93% 30.17 in 7.0 mi North 11.5 mph 19.6 mph N/A   Overcast
9:15 PM 35.6 °F 29.2 °F 33.8 °F 93% 30.17 in 7.0 mi North 8.1 mph 17.3 mph N/A   Overcast
9:35 PM 35.6 °F 27.5 °F 33.8 °F 93% 30.17 in 7.0 mi North 11.5 mph - N/A   Overcast
9:55 PM 35.6 °F 26.6 °F 33.8 °F 93% 30.16 in 7.0 mi NNW 13.8 mph - N/A   Overcast
10:15 PM 35.6 °F 26.2 °F 33.8 °F 93% 30.16 in 7.0 mi North 15.0 mph 18.4 mph N/A   Overcast
10:35 PM 35.6 °F 28.6 °F 33.8 °F 93% 30.16 in 7.0 mi North 9.2 mph 16.1 mph N/A   Overcast
10:55 PM 35.6 °F 27.5 °F 33.8 °F 93% 30.16 in 7.0 mi North 11.5 mph - N/A   Overcast
11:15 PM 35.6 °F 28.0 °F 33.8 °F 93% 30.16 in 7.0 mi North 10.4 mph 16.1 mph N/A   Overcast
11:35 PM 35.6 °F 28.0 °F 35.6 °F 100% 30.16 in 5.0 mi North 10.4 mph 18.4 mph N/A   Overcast
11:55 PM 35.6 °F 28.0 °F 33.8 °F 93% 30.15 in 5.0 mi North 10.4 mph - N/A   Overcast